STARLINK-2274 (48599 NORAD) Tracking and Keplerian Element Data

This shows tracking and keplerian element data for the satellite.

Feedback or suggestion? Click here.




ElementValue
Catalog48599
NameSTARLINK-2274
Epoch Orbit364
Epoch Day214.91667824
Epoch Year2021
RAAN104.0812
Inclination53.054
Eccentricity0.0001663
Argument of Perigee48.9747
Mean Anonmoly122.3688
Mean Motion15.42179067
Decay Rate-0.00044402
L11 48599U 21041AY 21214.91667824 -.00044402 00000-0 -10160-2 0 9992
L22 48599 53.0540 104.0812 0001663 48.9747 122.3688 15.42179067 3640

Live tracking and technical data element details for STARLINK-2274 (NORAD 48599). STARLINK-2274 can be tracked NOW for your location showing map with azimuth and elevation plus other details from your city location.

Track the satellite on the map from your city or location and see movement details for azimuth, elevation, latitude, longitude, range, height, and movement on the map or in text.







IsCatalogInMostPopularTable: catalog: 48599, numindb: 19
Update: records affected: 1



GetName: 48599 STARLINK-2274

Hit Count: updated at: Wed, 04 Aug 2021 00:38:16 GMT